[[{"header":{"parameterUnit":"m.s-1","parameterCategory":1,"la1":30.2991,"la2":30.254,"lo1":-89.0895,"lo2":-89.0444,"dy":0.0017,"dx":0.0017,"nx":28,"ny":28,"refTime":"2024-07-31T09:00:00:Z","depth":0,"parameterNumber":2,"parameterNumberName":"U-component_of_WINDS"},"data":[0,0,0,0,0,0,0,0,0,0,0,0,0,0,0,0,0,0,0,0,0,0,0,0,0,0,0,0,0,0,0,0,0,0,0,0,0,0,0,0,0,0,0,0,0,0,0,0,0,0,0,0,0,0,0,0,0,0,1.6839,1.684,0,1.6886,1.6887,1.6887,1.6896,1.6896,1.6895,1.6895,1.6942,1.6944,1.6945,0,0,0,0,0,0,0,0,0,0,0,0,0,1.6759,1.676,1.6839,1.684,1.6841,1.6886,1.6887,1.6887,1.6896,1.6895,1.6895,1.6895,1.6942,1.6944,1.6946,0,0,0,0,0,0,0,0,0,0,0,0,0,1.6799,1.6761,1.6839,1.685,1.6852,1.6886,1.6887,1.6887,1.6896,1.6895,1.6895,1.6894,1.6941,1.6943,1.6946,1.6972,0,0,1.6953,1.6954,0,0,0,0,0,0,0,0,1.6796,1.6802,1.6848,1.685,1.6851,1.6885,1.6876,1.6916,1.6896,1.6879,1.6895,1.6894,1.6924,1.6927,1.6937,1.6974,1.6976,1.6953,1.6955,1.6956,1.6957,0,0,0,0,0,0,0,1.6794,1.68,1.6858,1.6849,1.6851,1.6853,1.6858,1.6883,1.6904,1.6881,1.6881,1.6887,1.6924,1.6935,1.6939,1.6977,1.6953,1.6956,1.6957,1.6958,1.704,1.7041,0,0,0,0,0,0,1.6789,1.6797,1.6856,1.6859,1.6822,1.6855,1.6861,1.6874,1.6904,1.6908,1.6887,1.6887,1.6931,1.6936,1.694,1.6974,1.6956,1.6958,1.696,1.7039,1.704,1.7041,0,0,0,0,0,0,1.6787,1.6794,1.6854,1.6829,1.6836,1.6857,1.6872,1.6876,1.6886,1.6909,1.6912,1.6894,1.6931,1.6937,1.6965,1.6976,1.6959,1.6962,1.7039,1.704,1.7041,1.7041,0,0,0,0,0,0,1.6785,1.6793,1.6803,1.6829,1.6838,1.6878,1.6873,1.6877,1.6891,1.6891,1.6916,1.692,1.6931,1.6961,1.6967,1.6979,1.6963,1.7038,1.7039,1.704,1.704,1.7042,1.7044,0,0,0,0,0,1.6782,1.6801,1.6803,1.681,1.685,1.6878,1.6883,1.6896,1.6891,1.6902,1.6917,1.6919,1.6974,1.6964,1.6971,1.6983,1.7037,1.7039,1.704,1.7039,1.7042,1.7044,0,0,0,0,0,0,1.6775,1.6804,1.6807,1.6835,1.6854,1.688,1.6893,1.6897,1.6918,1.6917,1.6931,1.6937,1.6964,1.6977,1.6965,1.7011,1.7005,1.7008,1.7002,1.7005,1.7006,1.7003,1.6965,0,0,0,0,0,1.6777,1.6797,1.6821,1.6843,1.6853,1.6871,1.6884,1.6892,1.6912,1.692,1.6937,1.6956,1.6978,1.6992,1.7013,1.7042,1.7049,1.7055,1.7056,1.7058,1.706,1.7078,1.7081,1.7046,1.7046,1.7046,0,0,1.6781,1.6799,1.6811,1.6843,1.6858,1.6879,1.6878,1.69,1.6916,1.6923,1.6951,1.6964,1.6987,1.7016,1.703,1.7027,1.7072,1.706,1.7061,1.7063,1.708,1.7083,1.7086,1.7048,1.7047,1.7047,0,0,1.6798,1.6814,1.6835,1.6851,1.6875,1.6888,1.6893,1.6918,1.6927,1.6955,1.6962,1.6982,1.7018,1.7035,1.7048,1.7075,1.7079,1.7082,1.7091,1.7108,1.7111,1.7113,1.7124,1.7127,1.7084,1.7084,1.7084,0,1.68,1.6831,1.6845,1.6867,1.6882,1.689,1.6912,1.6927,1.6957,1.6967,1.6964,1.7012,1.7028,1.7062,1.7069,1.7079,1.7086,1.7078,1.7109,1.7112,1.7114,1.7125,1.7128,1.7084,1.7084,1.7084,1.7084,0,1.6833,1.6855,1.6869,1.6898,1.6914,1.6936,1.6954,1.6969,1.6976,1.6989,1.7019,1.7038,1.7065,1.7073,1.708,1.7109,1.7107,1.7106,1.71,1.7118,1.7128,1.7131,1.7085,1.7084,1.7084,1.7084,0,0,1.6846,1.6884,1.6889,1.6903,1.6932,1.6949,1.6972,1.6998,1.7011,1.7032,1.7053,1.7085,1.7085,1.71,1.7109,1.7125,1.7146,1.7123,1.7123,1.7127,1.718,1.718,1.7185,1.7149,1.715,1.715,1.7179,0,1.6867,1.6908,1.6922,1.6957,1.6978,1.6988,1.7009,1.7029,1.7042,1.7063,1.7078,1.71,1.7099,1.7108,1.7124,1.714,1.7157,1.7138,1.7169,1.7169,1.7162,1.719,1.7189,1.7215,1.7182,1.7183,1.7184,0,1.6897,1.6919,1.6956,1.6984,1.6993,1.7011,1.7038,1.7057,1.7081,1.7089,1.7107,1.7116,1.7142,1.7135,1.7171,1.7158,1.7171,1.7181,1.7183,1.7186,1.7177,1.7194,1.7223,1.7227,1.719,1.7189,1.7189,0,1.6904,1.6943,1.6971,1.6983,1.7015,1.7028,1.7042,1.7065,1.7081,1.7104,1.7114,1.714,1.7154,1.7174,1.719,1.7183,1.7225,1.7219,1.7233,1.7233,1.7241,1.724,1.7273,1.7249,1.7249,1.7249,1.7249,0,1.6926,1.6949,1.6975,1.6991,1.7017,1.7034,1.7059,1.7074,1.7095,1.7116,1.7126,1.7145,1.7164,1.7186,1.7199,1.7228,1.7234,1.7242,1.7245,1.7241,1.724,1.725,1.7249,1.725,1.725,1.725,1.725,0,1.6938,1.6956,1.6987,1.7016,1.7024,1.7042,1.7067,1.7084,1.7099,1.7125,1.7132,1.7155,1.7182,1.72,1.7234,1.7242,1.7274,1.7276,1.7266,1.7267,1.7281,1.728,1.7321,1.7328,1.73,1.73,1.73,0,1.6951,1.6969,1.7,1.7015,1.703,1.7053,1.7069,1.7087,1.7104,1.7133,1.7147,1.7175,1.7198,1.724,1.726,1.7287,1.729,1.7303,1.7294,1.729,1.7291,1.729,1.7292,1.7304,1.7304,1.7305,1.7305,0,1.6973,1.6981,1.7004,1.7031,1.7051,1.7073,1.7095,1.7106,1.7128,1.7146,1.7174,1.7192,1.7228,1.7255,1.7284,1.7299,1.7306,1.7308,1.7313,1.7309,1.7302,1.7307,1.727,1.7306,1.7306,1.7306,1.7306,1.7306,1.6986,1.7003,1.7028,1.7054,1.7073,1.7094,1.7112,1.7129,1.7153,1.7183,1.7193,1.7222,1.7247,1.7287,1.7303,1.7326,1.7325,1.7332,1.7333,1.7335,1.7335,1.7299,1.7331,1.7331,1.7331,1.7331,1.7331,0,1.7009,1.7026,1.705,1.7081,1.7102,1.7107,1.7132,1.7149,1.7175,1.7198,1.7221,1.7254,1.7281,1.7304,1.7333,1.7347,1.7351,1.7354,1.7353,1.7357,1.7334,1.7328,1.7351,1.7351,1.7351,1.7351,1.7351,1.7351,1.7023,1.7052,1.7064,1.7103,1.712,1.7149,1.7164,1.7183,1.7202,1.7238,1.7261,1.7276,1.73,1.7331,1.7356,1.7363,1.7373,1.7375,1.7382,1.7361,1.7358,1.7356,1.735,1.7377,1.7377,1.7403,1.7403,1.7403]},{"header":{"parameterUnit":"m.s-1","parameterCategory":1,"la1":30.2991,"la2":30.254,"lo1":-89.0895,"lo2":-89.0444,"dy":0.0017,"dx":0.0017,"nx":28,"ny":28,"refTime":"2024-07-31T09:00:00:Z","depth":0,"parameterNumber":3,"parameterNumberName":"V-component_of_WINDS"},"data":[0,0,0,0,0,0,0,0,0,0,0,0,0,0,0,0,0,0,0,0,0,0,0,0,0,0,0,0,0,0,0,0,0,0,0,0,0,0,0,0,0,0,0,0,0,0,0,0,0,0,0,0,0,0,0,0,0,0,-2.6362,-2.6363,0,-2.6427,-2.6427,-2.6428,-2.644,-2.644,-2.6439,-2.6439,-2.6502,-2.6505,-2.6507,0,0,0,0,0,0,0,0,0,0,0,0,0,-2.6251,-2.6252,-2.6362,-2.6363,-2.6364,-2.6426,-2.6427,-2.6428,-2.644,-2.644,-2.6439,-2.6439,-2.6502,-2.6504,-2.6507,0,0,0,0,0,0,0,0,0,0,0,0,0,-2.6305,-2.6253,-2.6362,-2.6378,-2.638,-2.6426,-2.6427,-2.6428,-2.6441,-2.644,-2.6439,-2.6438,-2.6501,-2.6504,-2.6507,-2.6542,0,0,-2.6517,-2.6519,0,0,0,0,0,0,0,0,-2.6302,-2.6309,-2.6375,-2.6377,-2.6379,-2.6425,-2.6411,-2.6467,-2.6441,-2.6417,-2.6439,-2.6438,-2.6477,-2.6482,-2.6496,-2.6545,-2.6548,-2.6517,-2.6519,-2.6521,-2.6522,0,0,0,0,0,0,0,-2.6298,-2.6307,-2.6388,-2.6375,-2.6378,-2.6381,-2.6388,-2.6422,-2.6451,-2.6419,-2.642,-2.6428,-2.6478,-2.6493,-2.6497,-2.6549,-2.6517,-2.652,-2.6522,-2.6523,-2.6634,-2.6635,0,0,0,0,0,0,-2.6292,-2.6303,-2.6386,-2.639,-2.6338,-2.6384,-2.6392,-2.6411,-2.645,-2.6456,-2.6429,-2.6428,-2.6487,-2.6494,-2.65,-2.6546,-2.6521,-2.6524,-2.6526,-2.6633,-2.6634,-2.6635,0,0,0,0,0,0,-2.6289,-2.6299,-2.6383,-2.6347,-2.6358,-2.6387,-2.6408,-2.6412,-2.6427,-2.6457,-2.6462,-2.6438,-2.6487,-2.6495,-2.6533,-2.6548,-2.6525,-2.6528,-2.6632,-2.6633,-2.6635,-2.6636,0,0,0,0,0,0,-2.6286,-2.6298,-2.6311,-2.6347,-2.636,-2.6415,-2.6409,-2.6414,-2.6433,-2.6433,-2.6468,-2.6473,-2.6487,-2.6528,-2.6536,-2.6552,-2.6531,-2.663,-2.6632,-2.6634,-2.6635,-2.6637,-2.664,0,0,0,0,0,-2.6282,-2.6308,-2.6312,-2.6322,-2.6377,-2.6415,-2.6423,-2.644,-2.6434,-2.6448,-2.6468,-2.6471,-2.6545,-2.6531,-2.6541,-2.6558,-2.663,-2.6632,-2.6634,-2.6634,-2.6637,-2.664,0,0,0,0,0,0,-2.6272,-2.6313,-2.6318,-2.6356,-2.6383,-2.6418,-2.6435,-2.6442,-2.647,-2.6469,-2.6488,-2.6496,-2.6533,-2.6549,-2.6533,-2.6596,-2.6587,-2.6591,-2.6583,-2.6587,-2.6589,-2.6585,-2.6533,0,0,0,0,0,-2.6274,-2.6303,-2.6337,-2.6367,-2.638,-2.6406,-2.6423,-2.6434,-2.6462,-2.6473,-2.6495,-2.6522,-2.6551,-2.657,-2.6598,-2.6637,-2.6646,-2.6654,-2.6657,-2.6658,-2.6662,-2.6686,-2.6691,-2.6642,-2.6642,-2.6642,0,0,-2.6279,-2.6305,-2.6321,-2.6366,-2.6388,-2.6417,-2.6415,-2.6445,-2.6467,-2.6477,-2.6515,-2.6532,-2.6563,-2.6602,-2.6621,-2.6617,-2.6677,-2.6661,-2.6662,-2.6665,-2.6689,-2.6694,-2.6698,-2.6644,-2.6644,-2.6643,0,0,-2.6303,-2.6325,-2.6354,-2.6377,-2.6411,-2.6428,-2.6435,-2.647,-2.6483,-2.6521,-2.653,-2.6556,-2.6606,-2.6628,-2.6646,-2.6683,-2.6687,-2.6691,-2.6704,-2.6728,-2.6731,-2.6735,-2.675,-2.6754,-2.6694,-2.6694,-2.6694,0,-2.6304,-2.6349,-2.6368,-2.6399,-2.6419,-2.6432,-2.6462,-2.6483,-2.6523,-2.6537,-2.6533,-2.6598,-2.6619,-2.6665,-2.6674,-2.6688,-2.6697,-2.6687,-2.6729,-2.6733,-2.6737,-2.6751,-2.6756,-2.6695,-2.6695,-2.6695,-2.6695,0,-2.635,-2.6381,-2.6401,-2.6442,-2.6464,-2.6494,-2.6519,-2.6539,-2.6549,-2.6567,-2.6607,-2.6634,-2.667,-2.6681,-2.669,-2.6729,-2.6726,-2.6726,-2.6717,-2.6741,-2.6755,-2.6761,-2.6695,-2.6695,-2.6695,-2.6695,0,0,-2.6367,-2.6421,-2.6428,-2.6448,-2.6488,-2.6512,-2.6544,-2.658,-2.6598,-2.6627,-2.6655,-2.6698,-2.6698,-2.6719,-2.6731,-2.6752,-2.6781,-2.6749,-2.675,-2.6755,-2.6829,-2.683,-2.6836,-2.6785,-2.6786,-2.6787,-2.6827,0,-2.6397,-2.6455,-2.6474,-2.6522,-2.6553,-2.6566,-2.6594,-2.6622,-2.6641,-2.6669,-2.6689,-2.672,-2.6717,-2.673,-2.6751,-2.6773,-2.6797,-2.6771,-2.6812,-2.6813,-2.6805,-2.6842,-2.6843,-2.6879,-2.6832,-2.6833,-2.6833,0,-2.6438,-2.647,-2.6522,-2.6561,-2.6574,-2.6599,-2.6635,-2.6662,-2.6694,-2.6706,-2.6731,-2.6742,-2.6777,-2.6767,-2.6816,-2.6798,-2.6817,-2.683,-2.6832,-2.6837,-2.6825,-2.6849,-2.689,-2.6896,-2.6842,-2.6841,-2.684,0,-2.6448,-2.6503,-2.6542,-2.6558,-2.6604,-2.6622,-2.6642,-2.6673,-2.6695,-2.6727,-2.6741,-2.6776,-2.6795,-2.6822,-2.6843,-2.6833,-2.6891,-2.6882,-2.6903,-2.6902,-2.6914,-2.6913,-2.696,-2.6924,-2.6924,-2.6924,-2.6924,0,-2.6479,-2.6511,-2.6547,-2.6571,-2.6607,-2.663,-2.6665,-2.6686,-2.6715,-2.6744,-2.6757,-2.6784,-2.681,-2.684,-2.6856,-2.6896,-2.6904,-2.6915,-2.6919,-2.6915,-2.6913,-2.6927,-2.6925,-2.6926,-2.6925,-2.6925,-2.6925,0,-2.6495,-2.6521,-2.6565,-2.6606,-2.6617,-2.6642,-2.6677,-2.6701,-2.6721,-2.6758,-2.6768,-2.6799,-2.6836,-2.686,-2.6905,-2.6917,-2.6961,-2.6963,-2.695,-2.6952,-2.6972,-2.697,-2.703,-2.7039,-2.6997,-2.6997,-2.6997,0,-2.6514,-2.6539,-2.6584,-2.6605,-2.6625,-2.6658,-2.6681,-2.6705,-2.6728,-2.6769,-2.6789,-2.6827,-2.6859,-2.6917,-2.6944,-2.698,-2.6985,-2.7003,-2.699,-2.6985,-2.6987,-2.6985,-2.6989,-2.7005,-2.7005,-2.7006,-2.7006,0,-2.6545,-2.6557,-2.659,-2.6628,-2.6656,-2.6686,-2.6717,-2.6733,-2.6763,-2.6789,-2.6828,-2.6852,-2.6901,-2.6939,-2.6979,-2.6999,-2.7008,-2.701,-2.7017,-2.7013,-2.7005,-2.7011,-2.6957,-2.7008,-2.7008,-2.7008,-2.7008,-2.7008,-2.6563,-2.6587,-2.6624,-2.6661,-2.6687,-2.6716,-2.6742,-2.6767,-2.68,-2.6842,-2.6855,-2.6896,-2.693,-2.6984,-2.7006,-2.7039,-2.7036,-2.7046,-2.7049,-2.7051,-2.7052,-2.6999,-2.7046,-2.7046,-2.7046,-2.7046,-2.7046,0,-2.6596,-2.6621,-2.6655,-2.6699,-2.6729,-2.6736,-2.6771,-2.6796,-2.6832,-2.6864,-2.6896,-2.6942,-2.698,-2.7011,-2.705,-2.7071,-2.7076,-2.708,-2.7079,-2.7084,-2.7051,-2.7042,-2.7076,-2.7076,-2.7076,-2.7076,-2.7076,-2.7076,-2.6617,-2.6659,-2.6676,-2.6732,-2.6756,-2.6798,-2.6818,-2.6845,-2.6871,-2.6923,-2.6955,-2.6975,-2.7008,-2.705,-2.7086,-2.7094,-2.7109,-2.7112,-2.7122,-2.709,-2.7086,-2.7083,-2.7075,-2.7115,-2.7115,-2.7153,-2.7153,-2.7153]}]]